Wind_Speed
36 32 36 42 46 47 43 37 31 26 22 22 24 26 26 28 28 27 27 25 26 35 37 31 30 33 31 26 22 21 19 18 18 18 17 17 17 18 18 18 19 20 19 19 20 20 20 19 17 15 14 13 11 11 12 13 12 12 13 13 13 14 13 12 12 13 13 10 7 7 6 6 8 9 9 9 8 7 6 6 6 6 6 6 6 7
35 37 46 48 42 39 39 35 27 25 26 24 24 27 28 29 29 27 26 25 26 35 37 30 29 32 34 31 26 25 24 19 16 16 16 16 17 18 19 18 20 20 19 20 20 20 21 20 19 16 14 13 11 12 13 13 12 12 13 12 13 15 14 12 12 13 12 10 9 9 9 8 8 9 9 8 8 8 7 6 7 7 7 6 7 7
38 48 50 41 33 31 33 33 28 26 31 29 26 27 29 30 30 28 28 27 27 36 38 31 28 30 33 32 29 29 27 19 15 15 14 15 18 19 20 19 20 20 20 21 22 22 23 21 19 16 15 15 14 13 12 11 12 13 14 13 14 16 13 12 13 12 11 10 10 11 11 10 9 9 9 9 8 8 7 6 7 6 5 4 4 5
42 49 44 33 30 29 29 31 30 29 32 32 30 28 27 29 31 30 30 27 29 34 37 32 26 25 27 27 25 22 18 16 16 14 13 14 17 19 21 20 18 19 21 22 23 23 23 21 18 17 17 17 15 13 11 11 13 14 15 15 16 15 12 12 13 12 10 10 11 11 11 10 9 9 10 10 9 8 8 7 6 5 5 4 3 4
37 35 35 32 28 28 29 29 33 33 33 33 34 32 28 26 27 28 27 25 27 32 36 32 22 19 26 27 23 19 16 18 18 16 16 17 18 19 19 18 16 17 18 20 22 22 21 19 18 18 16 14 13 12 10 11 13 14 14 16 16 15 12 13 13 12 11 10 10 10 9 10 10 11 11 9 10 10 9 8 7 6 5 4 3 4
30 23 29 34 28 30 32 31 35 37 34 33 35 36 31 27 24 24 25 23 26 32 32 31 19 13 26 28 24 23 21 20 18 17 18 18 20 20 17 17 16 16 17 18 20 20 19 18 16 15 13 12 12 11 10 12 13 13 14 15 15 14 13 14 14 12 11 10 10 10 10 9 10 11 11 9 10 11 9 8 7 5 5 5 4 5
27 21 27 34 30 31 33 33 36 37 35 35 37 36 32 29 25 23 26 24 27 31 29 31 19 12 23 26 24 25 23 21 19 18 20 19 21 21 17 16 17 18 19 20 22 21 18 16 14 12 12 12 11 10 10 12 14 14 15 14 13 12 13 14 14 13 13 12 11 11 10 10 10 10 10 11 11 9 7 6 5 5 6 6 6 6
28 25 29 34 33 32 35 37 36 36 36 36 38 35 31 31 27 24 27 25 26 30 29 31 25 18 24 27 25 25 24 22 22 22 21 22 22 20 17 17 19 20 20 21 22 21 18 15 13 13 13 13 12 10 9 10 13 14 14 12 12 12 13 14 14 14 14 14 13 13 12 12 12 11 11 11 8 6 5 5 5 5 6 7 7 7
29 30 31 33 35 34 38 40 35 34 36 37 37 34 31 28 27 26 23 20 26 31 26 32 29 15 20 31 28 24 26 24 23 25 23 23 23 20 18 20 21 20 19 21 21 20 18 16 15 14 14 14 13 11 11 11 12 12 11 11 13 14 14 14 15 15 15 15 15 15 14 14 13 13 11 8 6 5 6 6 6 6 7 8 8 8
26 31 29 30 35 37 36 36 35 34 35 35 34 33 30 24 26 26 20 16 28 27 21 33 31 12 13 32 36 28 27 25 23 24 23 24 24 20 20 22 22 21 21 22 21 20 19 18 17 16 15 13 12 13 14 15 13 12 12 12 14 15 15 16 15 16 17 17 17 16 15 14 13 12 9 7 6 6 6 7 6 7 8 8 9 9
24 28 28 29 34 36 32 32 35 34 30 32 32 31 29 26 28 24 19 17 19 15 20 31 32 18 10 27 42 32 22 23 25 26 26 27 25 22 23 24 23 23 24 24 22 20 20 19 18 17 15 13 12 14 16 17 15 13 13 14 15 16 16 16 15 15 17 16 16 15 15 14 12 10 9 8 8 7 7 7 6 7 8 10 11 11
24 27 31 31 32 33 30 29 34 33 28 29 33 31 26 24 24 20 19 18 7 5 19 29 30 24 13 23 41 32 21 22 25 25 26 28 27 26 27 26 24 24 25 24 22 21 21 21 19 18 17 15 13 15 17 18 17 15 15 16 16 16 16 17 16 16 17 16 16 15 15 14 12 10 9 8 7 7 7 7 7 8 10 11 12 13
29 31 32 29 30 33 31 29 33 35 32 31 35 34 21 10 11 11 10 9 3 4 20 29 27 21 17 24 33 29 24 25 24 21 20 24 27 29 29 27 26 25 25 26 24 22 21 20 19 19 18 16 15 15 16 18 18 17 17 17 16 16 15 15 15 16 17 17 16 14 12 11 10 9 8 8 7 8 8 8 8 10 12 13 14 16
27 30 31 29 30 34 33 33 36 39 37 36 40 35 18 5 5 6 3 3 1 4 20 30 21 12 17 26 29 25 22 24 24 19 16 18 23 26 27 28 28 26 25 26 25 23 21 19 19 19 18 17 16 17 18 20 19 18 18 18 17 16 16 15 15 14 15 15 13 12 10 9 8 9 9 9 9 10 11 11 12 14 15 16 17 18
18 20 30 33 31 35 38 36 36 38 36 39 42 33 18 8 6 5 2 4 3 3 15 23 11 5 11 20 25 22 18 22 25 20 17 17 19 21 25 29 29 26 26 26 24 22 20 19 19 20 19 18 19 20 21 21 21 20 19 18 18 16 16 16 15 14 13 12 12 10 10 9 9 10 10 11 12 13 14 15 15 17 18 19 19 19
17 17 29 34 29 33 39 36 34 33 30 36 39 31 23 16 11 7 2 5 9 5 7 12 4 5 8 12 20 21 20 27 27 21 21 20 20 23 26 29 29 27 27 26 25 24 21 20 20 20 20 20 20 20 21 21 20 19 17 17 17 16 16 15 14 13 12 12 12 11 10 10 10 11 11 12 13 14 15 15 16 17 18 19 19 19
18 16 28 32 26 30 35 33 33 29 26 33 35 31 29 21 15 10 4 4 9 6 5 9 3 7 11 14 24 28 25 30 30 24 22 22 23 25 25 28 28 28 28 27 26 25 21 21 22 22 22 21 21 21 20 20 19 17 16 15 16 16 16 15 14 13 12 11 12 11 11 11 11 11 12 12 13 14 15 16 17 17 18 18 18 19
18 16 29 36 30 30 33 32 33 28 24 30 33 34 31 20 18 19 7 3 5 3 5 11 11 16 18 19 28 32 29 33 31 24 23 23 25 26 25 27 28 27 27 26 25 24 21 22 23 24 24 22 22 22 20 19 17 15 16 16 17 17 16 15 14 13 13 13 13 13 13 12 12 12 12 13 13 14 15 17 17 18 18 18 18 18
19 13 23 37 34 30 32 32 34 32 25 26 31 35 29 16 15 21 12 3 5 2 3 8 14 18 22 27 31 32 31 34 30 24 24 25 26 27 26 27 27 26 26 26 24 23 22 23 25 26 24 23 23 22 20 18 17 17 17 17 17 17 16 16 15 14 14 14 14 13 13 13 13 13 13 13 14 14 15 16 16 17 17 17 17 17
21 12 13 30 36 31 30 29 33 35 29 24 26 30 29 17 11 15 15 9 8 4 2 5 8 10 21 30 34 34 32 32 30 26 25 26 26 27 26 25 25 24 25 25 22 22 22 23 26 27 25 24 23 21 20 19 18 17 18 18 18 18 17 16 15 14 13 13 12 11 11 11 12 12 12 12 13 13 13 14 15 15 15 15 15 15
19 14 11 26 32 27 27 27 34 38 30 27 28 27 29 23 10 10 16 16 14 8 2 3 3 7 21 27 31 37 34 29 29 26 26 28 27 26 25 23 22 22 25 24 21 21 23 24 27 27 26 25 23 20 19 18 18 18 18 19 19 18 18 16 15 14 13 11 10 9 9 10 11 11 11 12 12 12 13 13 14 14 13 14 14 14
15 15 17 25 26 25 32 33 36 36 26 27 30 24 29 30 16 7 9 15 20 13 6 6 1 6 23 28 28 33 32 28 28 27 28 28 26 26 25 22 20 22 24 23 21 21 23 24 27 28 28 27 24 21 19 17 17 18 19 19 19 18 17 16 15 14 13 11 9 8 8 9 11 11 12 12 12 12 13 13 13 12 12 12 12 12
14 15 19 28 28 28 34 33 36 35 23 25 29 21 26 34 24 10 5 12 20 14 11 13 4 4 22 32 28 25 26 28 28 27 27 26 25 26 26 23 21 22 22 22 21 21 23 26 28 29 29 29 26 22 20 18 18 19 20 19 18 17 15 15 15 15 14 12 10 9 9 10 11 12 12 12 12 12 12 12 12 12 12 11 11 11
13 13 18 27 25 26 32 32 35 37 26 27 32 24 25 32 31 21 11 13 19 16 14 11 3 3 16 28 28 24 25 28 27 26 25 25 25 25 25 24 23 24 23 22 22 22 25 27 29 31 31 30 27 24 22 21 19 20 20 19 17 16 15 15 15 16 16 13 11 11 12 13 13 13 13 12 12 12 12 12 11 11 11 11 10 10
13 13 16 20 13 15 24 23 27 34 29 26 32 30 26 29 32 29 21 14 14 18 18 9 4 8 14 21 27 26 25 25 24 24 24 24 25 25 26 26 24 25 25 24 24 24 25 28 30 32 32 30 27 25 24 23 21 20 19 18 18 17 16 16 15 15 15 14 14 14 15 16 15 14 13 12 11 11 11 10 10 10 10 10 10 10
15 15 14 14 7 6 12 13 20 32 28 20 25 31 28 24 26 30 28 17 8 15 18 7 10 20 20 21 27 26 24 25 25 25 25 24 24 24 25 26 25 26 26 24 24 23 23 27 31 32 31 30 28 25 26 25 21 19 19 19 19 19 17 16 16 16 15 15 15 16 17 18 17 14 12 11 11 10 10 10 10 10 10 9 9 9
15 17 16 14 10 11 15 16 22 29 25 16 19 28 29 24 21 25 29 20 9 13 13 6 15 27 23 21 28 27 25 26 28 29 28 26 24 23 23 24 24 26 26 24 23 23 23 25 29 31 30 29 28 27 28 25 21 20 20 20 20 19 18 17 16 16 17 16 16 17 18 18 16 14 12 11 10 10 10 10 9 9 9 9 9 8
14 17 19 16 12 15 21 21 22 27 27 20 19 24 28 25 21 20 23 20 14 12 9 9 18 25 23 22 27 28 26 26 28 30 30 27 25 22 21 21 23 24 26 25 25 24 24 25 27 29 29 29 29 28 28 25 22 22 22 22 22 21 19 18 17 17 17 17 17 18 19 18 15 12 11 10 10 10 10 10 9 9 9 8 7 7
15 14 17 16 12 14 20 20 22 29 30 23 19 22 27 27 24 22 19 15 15 12 10 14 17 21 26 26 25 25 24 25 27 28 28 26 24 22 21 21 22 24 25 26 26 26 26 26 28 29 30 30 29 29 28 25 24 24 23 23 24 22 20 19 18 18 18 17 18 18 18 16 13 11 10 10 10 10 9 9 9 9 9 7 6 5
15 12 12 12 10 11 12 12 16 28 33 28 22 23 25 25 26 26 22 13 12 12 10 13 13 18 26 27 24 24 24 25 26 26 26 25 24 23 22 22 22 24 25 25 25 25 26 26 28 30 31 30 29 28 27 25 25 24 24 24 24 22 20 19 19 19 18 18 18 17 16 14 11 10 10 9 9 9 9 9 9 8 7 6 5 5
15 12 11 9 7 9 11 7 7 16 29 31 26 26 25 21 22 27 26 16 10 10 12 13 13 17 22 23 24 26 26 26 26 25 25 25 25 25 24 24 23 23 23 24 23 23 23 25 28 30 30 30 29 29 27 26 26 24 24 25 24 22 21 20 19 18 18 17 16 15 13 12 10 10 9 8 9 9 9 9 8 7 6 6 7 8
13 11 10 8 5 5 11 11 2 3 15 24 26 28 27 21 19 23 25 21 14 9 12 17 18 21 23 22 24 26 25 24 25 24 24 24 24 24 23 23 23 22 22 23 23 23 23 25 27 28 28 28 29 29 28 27 25 23 24 24 23 21 20 20 18 17 17 16 15 13 12 11 10 9 9 9 9 9 8 7 6 6 7 8 8 6
12 12 8 5 3 4 7 12 6 3 5 13 18 23 27 24 19 17 19 21 21 15 11 14 18 22 25 23 23 24 23 23 24 23 23 22 21 19 17 17 18 19 20 21 21 21 23 25 26 26 27 29 29 29 28 26 24 23 23 22 21 20 20 19 17 16 16 15 14 13 11 10 10 10 9 9 9 8 7 6 6 7 8 7 4 2
11 11 5 2 3 5 4 9 6 3 2 6 8 14 21 22 19 16 14 17 21 21 17 12 12 18 25 25 22 20 19 22 23 22 21 19 16 13 12 12 14 16 18 19 18 17 18 21 23 25 26 28 29 28 27 26 25 24 23 22 21 20 20 18 15 14 14 14 13 12 11 10 10 10 10 9 9 7 7 7 7 7 6 4 4 3
12 10 5 3 6 6 6 8 4 2 2 6 4 8 17 20 21 21 18 16 17 18 19 17 10 10 19 22 18 15 15 18 21 22 20 17 15 14 13 11 11 12 14 16 17 17 17 19 22 24 26 27 27 27 27 27 26 25 23 22 21 20 20 17 13 13 14 14 13 12 11 11 11 10 10 9 9 8 8 7 7 7 6 5 4 2
16 11 6 5 7 8 9 10 4 2 6 10 6 7 17 20 19 20 20 19 19 17 18 21 15 8 13 18 17 15 15 16 19 21 20 18 17 17 15 12 10 9 10 13 15 15 16 19 22 25 26 27 27 27 27 27 27 26 23 22 21 20 18 16 14 14 15 14 13 12 12 11 11 10 10 10 9 9 8 8 8 7 6 5 3 2
19 12 7 6 7 7 9 10 6 3 6 13 12 8 14 16 13 14 16 18 23 22 20 23 20 13 13 16 17 18 18 19 22 22 22 22 21 20 19 16 13 10 10 11 12 14 16 19 22 24 26 27 28 28 26 26 26 25 22 22 21 19 16 15 15 15 15 14 14 13 12 11 10 9 10 10 10 9 9 9 8 7 6 5 3 1
19 13 9 7 7 8 8 7 4 1 4 11 13 9 13 16 13 12 14 16 21 24 24 26 25 20 19 19 20 21 22 23 25 25 24 25 25 24 24 21 17 15 12 11 12 14 17 19 22 25 25 25 26 26 25 25 25 24 22 22 20 17 16 16 16 15 15 15 14 13 11 10 9 9 10 10 10 10 9 9 8 7 6 4 2 2
16 15 12 8 5 8 8 5 4 3 6 10 11 10 12 16 14 13 14 16 20 20 18 24 27 25 26 26 24 25 27 26 25 25 25 26 26 26 27 24 19 17 14 12 13 15 17 19 21 24 25 25 26 26 25 24 24 23 22 21 19 17 16 16 16 15 15 15 13 11 10 9 9 9 10 10 10 9 9 9 8 7 5 4 2 2
16 16 15 12 7 5 7 5 4 3 6 8 9 9 9 12 15 12 9 14 21 20 15 17 23 26 30 30 27 27 28 25 23 22 23 25 26 27 25 22 18 16 14 12 13 16 17 18 20 22 25 27 28 27 24 22 22 22 22 20 19 17 16 16 16 15 15 14 12 10 9 9 9 10 10 9 9 9 9 9 8 7 5 4 3 3
18 18 16 13 8 5 5 6 4 4 6 7 8 8 8 10 13 12 10 16 24 25 19 14 16 24 30 30 27 25 24 21 18 17 17 21 24 25 22 18 16 16 15 13 14 16 17 18 18 21 24 25 24 23 22 21 22 22 22 21 19 18 17 16 16 16 15 13 11 10 9 9 10 10 10 10 10 10 10 9 8 7 5 4 4 4
16 18 15 13 10 7 7 6 4 8 11 12 8 6 8 10 10 11 14 17 21 26 27 21 16 18 21 21 20 21 21 19 16 16 17 20 21 20 17 16 15 15 15 14 14 16 16 17 19 20 22 23 23 24 24 24 24 23 23 22 20 19 18 17 17 16 15 13 11 10 9 9 10 11 11 11 12 11 11 10 9 7 6 5 4 4
11 12 13 14 13 8 7 6 3 7 14 16 10 7 10 11 9 11 15 14 13 18 25 26 23 20 18 17 18 19 19 17 17 18 19 21 21 17 15 15 13 11 11 12 13 15 17 18 19 21 22 24 25 26 26 25 26 25 23 22 20 19 19 17 17 17 15 12 11 10 10 11 12 12 13 13 13 13 12 11 9 8 6 5 5 5
10 7 8 11 13 11 7 3 3 8 15 16 11 10 12 13 12 11 12 11 11 12 16 20 24 25 23 22 22 20 18 17 19 20 21 22 21 18 17 17 14 11 10 9 11 14 17 19 20 22 24 26 27 26 24 25 26 25 23 21 20 20 19 17 17 17 14 12 11 11 11 12 13 14 15 15 14 14 12 11 9 8 7 5 5 5
10 8 8 8 9 9 6 3 7 12 16 15 12 12 13 13 13 11 8 7 9 10 12 17 22 24 23 23 24 22 19 19 20 21 21 20 19 19 19 19 17 14 12 10 10 12 15 18 19 21 24 27 26 24 24 26 27 25 23 21 21 20 18 17 17 16 13 12 12 12 12 14 15 16 16 16 15 14 12 11 10 8 7 6 5 4
8 9 10 8 5 4 2 3 6 12 18 19 15 13 13 14 13 11 9 7 6 9 12 14 17 18 17 17 19 19 18 19 20 20 19 19 19 19 19 18 17 16 14 12 11 12 14 17 19 21 24 25 25 24 25 27 26 25 22 21 20 19 18 18 17 15 13 13 14 13 14 15 17 18 18 17 16 14 13 11 10 8 7 6 5 4
9 10 9 6 5 4 3 5 5 9 16 20 16 12 12 13 12 11 10 8 6 7 11 14 15 15 14 15 16 17 17 19 19 19 19 18 18 17 16 15 15 14 13 12 12 13 15 16 18 20 22 23 24 24 26 27 26 25 22 20 19 18 18 18 17 15 14 15 14 14 15 17 18 19 19 18 16 15 14 12 9 8 7 6 5 3
9 12 9 4 3 5 6 8 7 7 11 14 14 11 11 11 12 12 12 11 9 8 9 12 14 15 16 17 17 16 16 16 16 15 15 14 14 13 12 11 11 11 11 11 12 14 16 16 17 20 22 23 24 25 26 28 28 25 22 20 19 19 19 19 16 15 16 16 14 15 17 19 20 20 19 18 17 15 13 11 10 9 7 5 4 2
5 11 10 5 4 6 8 9 8 8 10 12 12 12 12 11 11 10 11 12 12 10 10 11 13 14 15 15 16 15 14 13 13 12 12 12 12 11 11 11 11 11 12 11 12 13 14 15 17 20 22 23 24 25 27 29 28 25 22 20 20 20 20 19 17 17 18 16 15 16 19 20 21 21 20 18 16 14 13 12 11 9 7 5 4 2
2 8 10 9 8 9 10 11 10 10 11 13 13 13 13 12 9 8 8 10 10 10 11 12 12 13 13 14 14 13 12 12 12 11 11 11 11 10 11 12 13 13 13 13 13 13 14 15 16 19 21 23 24 25 27 29 27 25 23 21 20 20 20 19 19 19 18 17 16 18 20 22 23 22 20 18 15 14 14 13 11 8 7 5 4 3
2 5 6 8 9 9 11 13 12 12 13 13 13 13 15 15 12 9 8 9 9 10 12 13 13 13 12 13 13 12 11 11 11 11 10 10 8 8 9 11 13 14 14 14 15 15 16 17 18 19 21 23 24 26 28 29 27 25 24 22 21 21 21 20 19 19 18 17 18 20 22 24 24 22 19 17 16 16 15 12 10 8 7 6 5 4
Wind_Direction
187 190 194 199 203 203 201 203 211 214 207 206 211 213 214 216 218 217 218 223 216 211 212 211 208 212 217 217 217 223 228 228 231 233 231 229 223 213 211 209 203 197 191 195 202 203 201 198 196 192 191 195 200 210 220 223 223 217 215 215 216 222 225 220 211 204 199 196 191 189 202 208 195 193 195 196 195 189 191 196 196 201 202 200 216 236
191 199 204 201 202 205 206 204 205 211 209 207 214 214 211 215 220 216 214 222 219 210 209 208 207 212 215 216 219 227 235 236 230 230 230 227 217 210 211 211 205 198 192 196 201 203 201 196 192 187 186 186 193 210 212 213 219 218 212 207 211 220 220 213 204 198 196 190 180 183 197 209 202 195 199 203 195 183 181 193 202 206 207 205 214 235
199 207 207 202 201 204 207 207 204 210 215 218 223 218 213 212 215 217 214 221 221 207 204 205 206 213 216 215 220 228 233 229 220 222 228 226 218 212 211 209 204 198 195 197 201 203 202 196 191 187 183 182 190 203 208 215 221 219 213 207 213 220 214 204 201 198 196 192 184 185 194 204 205 199 199 198 187 175 178 198 206 203 216 234 238 254
205 209 206 200 201 199 202 210 208 209 216 223 228 227 222 211 209 217 213 219 225 207 199 203 202 202 203 201 204 213 217 206 203 211 217 220 219 214 211 206 203 201 198 199 202 204 203 198 193 189 186 189 197 205 216 229 232 227 218 211 214 214 201 195 199 196 194 194 190 186 188 195 198 192 189 185 178 176 180 196 213 217 237 259 269 277
210 213 205 195 197 198 201 209 209 210 217 224 228 230 231 219 214 216 212 221 221 203 196 191 177 174 184 184 182 182 192 198 198 204 208 212 213 210 208 204 200 201 203 205 207 206 206 203 196 192 193 202 210 214 223 229 231 231 219 211 211 207 201 199 197 194 193 193 189 187 188 192 191 185 183 173 168 179 187 200 219 230 247 268 280 280
213 216 204 192 192 202 206 208 207 208 217 227 229 227 225 222 223 219 218 218 198 189 192 182 154 148 176 180 177 175 182 193 195 201 206 210 211 207 203 202 200 201 205 210 210 207 204 199 192 190 198 210 214 212 219 223 225 225 217 212 212 211 212 204 196 195 196 192 188 192 196 196 187 178 177 172 171 184 196 209 225 243 264 280 283 280
212 210 201 192 193 203 205 208 208 206 216 228 223 219 219 219 227 229 225 216 186 180 187 183 170 154 173 179 180 180 182 189 192 197 205 208 206 202 197 201 204 203 205 206 206 205 200 196 189 189 199 208 208 209 219 224 223 220 214 213 212 211 208 197 195 199 198 193 188 187 187 183 177 172 178 185 184 189 201 222 243 258 272 278 279 278
207 202 198 194 195 201 203 205 206 203 214 222 212 213 223 223 230 237 234 229 198 182 181 184 180 164 174 183 184 190 188 186 191 193 202 209 205 201 198 202 204 204 207 206 204 205 204 203 198 192 197 200 199 205 216 220 221 217 211 208 203 197 191 187 192 197 195 189 183 180 179 181 184 188 195 197 194 198 215 241 254 258 269 273 274 276
203 202 200 197 196 202 205 205 203 204 214 217 210 217 227 229 237 243 253 245 194 179 183 191 189 171 176 180 180 193 191 181 189 196 206 211 205 202 199 198 200 201 206 207 207 211 209 205 196 187 188 191 193 203 210 209 212 210 202 197 189 184 183 185 191 194 191 185 180 179 180 183 189 196 206 210 207 215 228 243 250 254 264 266 271 281
204 204 201 199 200 204 208 206 203 205 213 215 214 222 226 234 242 242 264 244 183 179 193 191 191 183 171 177 177 186 194 188 191 201 210 210 203 199 197 195 195 198 205 207 208 210 204 196 188 181 181 188 195 202 202 197 195 195 191 187 185 185 185 186 190 191 186 178 175 177 180 184 192 200 211 220 219 226 236 241 249 259 270 277 283 291
206 203 202 204 203 203 204 206 206 205 212 214 214 223 229 238 243 240 255 235 188 190 202 190 194 201 178 178 181 187 208 209 202 204 206 204 201 196 192 192 193 199 205 203 201 198 191 189 187 183 182 186 192 193 193 190 186 184 182 179 181 183 183 182 183 182 176 172 175 184 190 193 200 205 210 219 223 232 244 253 273 286 289 290 289 290
208 202 203 207 205 202 200 205 209 206 207 210 211 221 231 235 236 243 251 235 214 232 206 193 199 207 200 185 187 199 227 224 214 215 209 203 203 195 189 192 196 204 207 202 201 198 193 193 190 184 182 183 185 182 183 185 183 180 176 174 177 181 182 181 181 182 181 183 189 194 197 199 203 208 212 223 234 247 262 277 296 298 293 291 290 287
214 206 202 205 203 199 198 201 206 206 206 208 213 219 225 218 215 237 250 224 218 224 196 193 200 214 223 209 201 207 217 216 218 224 217 207 203 194 190 196 198 202 204 203 207 205 200 199 193 185 183 183 182 178 177 179 181 183 181 180 183 187 191 193 194 194 193 197 200 199 199 203 210 220 230 243 254 264 274 284 290 290 291 291 291 289
215 207 201 201 198 195 198 199 202 207 208 210 213 215 210 169 170 218 221 151 193 185 177 186 200 226 226 215 211 208 206 210 213 213 212 209 204 197 196 199 198 198 201 204 208 206 203 202 196 191 189 185 182 179 180 182 183 188 188 188 192 197 205 209 208 205 201 202 204 204 208 215 226 237 248 259 266 274 279 285 288 289 291 290 290 289
205 202 197 197 194 192 198 200 201 205 208 210 211 212 215 209 182 185 182 165 168 134 169 179 193 244 210 199 207 207 196 200 203 197 200 207 205 203 202 201 198 198 201 204 207 207 204 204 202 198 193 187 184 183 183 185 187 190 193 196 201 205 210 212 211 210 208 209 211 216 223 231 242 251 260 269 277 284 286 287 289 289 289 288 288 289
204 205 194 196 197 192 197 201 202 203 205 209 210 213 224 228 202 170 98 163 157 119 175 184 195 244 201 179 195 196 183 187 189 187 197 203 197 199 204 204 202 203 205 207 210 210 207 208 208 203 195 189 187 186 186 189 192 194 198 202 205 208 211 211 212 213 214 215 219 228 239 248 257 263 270 276 280 284 285 286 287 285 286 287 288 289
202 202 190 195 198 193 196 199 201 203 199 202 209 213 216 221 215 192 106 122 148 118 207 207 157 157 157 152 173 177 174 178 180 185 199 202 193 196 204 205 204 204 207 210 213 214 213 213 212 204 196 191 188 188 191 194 196 197 199 202 205 208 209 211 214 218 221 224 229 241 252 259 263 264 267 270 274 279 282 283 283 282 284 286 287 288
194 189 189 197 197 192 197 197 200 204 198 200 208 209 208 214 220 209 181 102 135 106 228 206 156 141 144 144 158 166 168 171 177 190 200 200 195 194 201 204 203 203 207 211 214 216 215 212 209 203 196 192 189 191 194 196 195 195 198 201 202 204 207 210 215 220 225 231 238 250 258 261 261 260 262 266 271 276 278 280 281 282 284 285 287 289
200 190 189 197 198 194 198 200 205 205 196 203 211 209 209 206 200 199 191 156 155 135 271 195 159 151 156 154 158 168 174 174 182 195 199 200 198 194 197 202 203 203 206 211 213 215 213 208 206 203 196 192 191 192 195 196 195 195 200 204 204 205 208 211 217 223 229 236 244 253 260 260 259 260 262 266 270 273 277 279 281 283 285 286 288 290
209 203 180 187 194 197 199 202 205 201 194 202 209 209 213 210 186 187 187 172 162 166 268 194 170 165 168 165 166 176 183 181 186 196 200 202 200 196 199 203 204 205 207 212 215 214 212 206 204 202 196 194 194 194 197 198 197 199 205 208 208 209 212 216 221 229 236 241 247 255 260 262 262 263 264 267 272 276 280 283 283 285 287 287 288 289
206 199 175 179 190 199 203 200 196 196 201 207 207 206 209 208 198 191 193 186 178 177 171 179 212 186 179 179 177 180 186 187 191 197 200 202 203 202 204 205 206 209 211 213 215 214 212 207 205 203 199 199 199 197 201 202 198 201 208 211 212 214 216 221 226 232 237 239 243 253 263 270 272 273 274 275 279 283 285 286 286 287 287 288 288 290
196 179 173 183 190 197 205 203 193 195 211 216 212 208 201 203 204 189 195 194 188 188 175 171 239 166 172 184 189 186 188 190 194 199 200 202 207 206 203 204 207 213 216 216 214 213 212 209 207 206 204 205 205 202 206 207 201 202 208 210 213 216 218 224 229 232 233 232 240 260 278 290 290 284 281 281 283 286 288 288 288 287 287 287 289 290
188 168 169 185 194 197 203 203 192 197 218 221 219 215 195 202 213 204 183 189 189 197 194 185 200 147 167 182 193 197 197 196 196 199 201 204 209 206 201 201 207 215 222 222 216 212 212 210 210 209 208 210 210 208 211 214 207 206 209 210 212 215 220 227 230 228 229 234 248 268 288 303 302 291 284 282 284 287 289 290 289 289 289 289 290 291
191 181 172 179 190 195 200 206 204 210 222 213 211 213 196 204 219 223 215 197 193 194 184 176 193 143 164 180 191 195 196 194 192 195 202 205 206 206 202 201 207 216 223 225 219 213 211 211 210 210 211 214 215 215 217 219 218 217 217 218 218 219 223 227 229 230 233 243 257 270 289 305 308 300 288 284 287 290 292 293 292 291 292 292 292 292
191 196 177 167 174 185 192 208 214 218 225 209 201 208 206 204 215 226 232 220 201 189 177 165 166 153 147 169 182 181 179 183 186 194 205 210 209 211 207 205 210 216 220 223 220 216 213 211 210 211 214 216 219 223 223 221 222 225 227 229 228 229 230 231 234 238 243 253 265 277 293 305 308 301 290 286 291 295 296 296 294 294 294 294 294 292
186 201 188 161 156 173 183 203 206 208 219 217 202 207 211 208 209 220 226 225 204 185 184 172 153 154 145 157 173 174 173 179 185 195 206 216 222 223 217 213 213 215 218 222 222 221 216 212 212 214 216 218 220 225 227 223 222 228 234 237 237 238 240 241 245 249 255 263 272 287 299 305 305 297 289 289 295 298 299 297 296 296 295 295 295 294
187 197 190 176 193 205 196 203 204 206 215 219 206 207 212 217 219 218 218 217 196 183 190 172 152 155 150 157 171 176 180 183 189 198 206 214 224 226 222 219 217 217 220 223 225 226 219 213 213 215 217 219 221 225 227 226 225 233 241 244 245 246 248 252 257 262 267 274 283 297 305 305 300 292 287 291 295 299 300 298 296 296 295 298 299 298
188 195 194 197 211 201 193 197 203 210 218 219 214 212 214 223 231 228 221 212 196 189 180 154 161 162 157 165 176 180 184 189 196 205 210 216 221 224 225 225 223 222 223 224 227 227 223 217 213 214 218 220 222 225 227 229 231 237 243 245 248 251 254 259 265 272 278 284 293 302 305 301 292 283 284 290 294 297 296 295 295 295 297 300 299 290
189 197 203 213 219 197 193 201 204 208 216 219 216 212 214 224 231 235 234 216 196 196 166 146 163 169 165 171 180 182 188 197 204 210 214 218 223 227 232 235 232 230 227 226 228 228 226 222 216 215 219 221 224 227 228 230 234 237 241 244 248 253 257 261 269 278 284 289 296 301 299 292 280 275 281 286 290 293 293 294 295 293 293 289 275 257
193 196 204 219 235 228 220 213 198 200 205 210 212 207 210 225 233 233 237 227 201 203 184 159 166 170 169 176 183 186 195 205 208 212 216 220 226 231 235 239 239 238 232 229 231 230 226 223 218 217 220 222 226 229 230 231 234 238 242 245 249 254 258 265 272 280 285 288 293 295 288 278 269 270 278 282 287 290 289 288 285 281 275 255 239 251
194 198 208 224 246 248 237 209 166 185 194 200 207 205 209 228 236 229 230 227 210 205 194 182 174 168 173 185 187 186 195 203 206 213 218 224 231 233 234 237 241 243 236 230 232 233 227 222 220 221 222 222 226 229 231 232 235 241 244 246 250 255 261 268 274 279 283 285 289 286 275 266 264 270 277 280 284 282 275 272 267 257 248 241 255 276
194 197 206 227 247 229 210 201 145 113 181 193 203 209 217 229 226 221 225 227 228 216 183 174 173 173 181 193 194 189 194 202 208 215 221 228 233 234 237 241 243 246 242 233 231 231 228 224 222 224 224 224 226 228 230 232 236 241 244 245 249 256 262 267 270 274 280 283 283 275 264 262 265 270 276 276 274 270 261 255 246 240 250 263 272 276
194 197 200 229 227 146 179 210 248 8 151 188 201 209 220 226 218 214 223 226 230 228 196 173 174 181 187 193 197 199 204 210 213 215 220 229 236 239 246 250 250 250 247 242 237 231 229 228 226 225 225 225 227 227 229 233 236 239 242 244 248 255 260 262 263 270 278 277 272 262 256 260 265 268 271 268 264 259 248 242 243 250 262 263 250 212
187 192 190 232 178 123 156 213 233 2 110 178 186 195 209 217 215 212 217 221 223 225 220 204 186 189 193 194 196 203 211 215 215 217 223 230 233 236 243 250 253 251 245 242 239 231 229 230 227 224 223 224 226 226 227 231 234 236 239 243 247 253 256 256 259 269 274 268 258 252 252 259 264 267 267 262 256 250 244 246 248 246 237 208 176 165
191 191 190 226 198 167 172 188 181 9 212 191 177 185 195 203 210 213 217 218 216 218 219 216 208 195 196 195 192 198 209 214 215 220 226 228 227 229 237 248 251 246 239 235 232 225 221 221 220 220 221 223 224 223 224 228 232 235 238 240 244 249 255 260 265 268 265 255 247 247 252 258 263 266 263 255 248 246 243 236 224 206 188 173 169 180
201 204 229 241 208 178 168 171 170 298 233 220 223 189 186 194 203 210 214 214 213 215 212 207 210 209 198 195 189 188 197 208 216 222 224 224 226 231 239 248 249 245 238 230 228 226 220 214 214 217 219 222 223 221 222 228 231 234 237 240 242 247 255 263 268 265 258 249 244 247 250 256 262 261 253 246 240 235 226 211 197 185 176 172 178 198
201 209 238 233 209 191 173 172 189 277 258 232 228 200 188 199 206 208 212 210 210 218 218 208 208 217 212 205 200 197 196 203 213 220 222 225 230 234 240 245 244 243 239 228 225 224 220 215 214 216 218 220 223 223 224 228 231 234 238 239 242 248 254 258 263 261 254 246 243 245 249 256 258 249 240 234 226 217 206 195 187 180 176 179 187 222
201 211 236 235 216 205 183 157 160 264 276 238 233 224 214 221 228 225 227 216 204 213 224 219 215 219 222 222 220 215 207 204 210 217 221 226 232 236 239 241 240 241 244 239 229 221 216 212 211 213 217 220 224 228 230 232 235 238 238 239 243 249 251 255 261 257 247 242 241 243 248 252 246 235 228 220 211 203 195 189 185 180 179 186 198 254
212 216 230 243 236 213 199 152 130 193 242 243 238 231 225 232 236 231 234 228 206 198 210 219 217 217 223 228 226 215 207 207 214 220 223 228 234 238 239 241 243 249 253 247 233 221 214 209 207 209 214 221 226 229 232 234 235 236 237 239 242 244 247 256 260 249 240 239 239 242 248 245 235 225 218 210 204 198 192 187 185 183 184 190 214 263
221 218 225 239 252 240 212 185 152 197 239 241 228 219 220 228 228 220 223 228 214 195 186 206 215 214 218 225 222 212 212 221 229 230 230 234 239 241 243 245 251 258 260 250 235 222 215 212 210 208 211 218 222 225 229 232 233 234 237 239 240 242 249 256 253 242 235 236 237 242 245 238 229 221 213 207 203 197 191 188 188 189 189 200 231 268
212 216 225 232 240 259 235 200 167 160 183 196 204 209 209 211 213 211 214 224 222 212 200 203 213 213 216 221 220 215 218 227 232 232 233 237 242 244 247 255 262 264 263 252 237 226 220 217 215 211 212 215 220 223 227 230 231 234 236 236 239 245 251 254 248 238 232 232 235 241 241 236 231 222 211 205 201 196 193 193 192 192 196 210 237 267
207 211 218 219 222 249 259 230 169 139 163 181 192 198 196 197 201 206 215 227 229 223 218 216 216 216 216 215 214 216 220 224 228 233 234 237 242 247 252 260 265 265 264 257 245 236 229 222 216 212 211 213 216 220 223 226 229 232 233 235 241 248 251 252 246 235 227 227 234 241 241 236 230 220 210 202 198 196 195 197 195 195 203 220 243 265
202 200 206 211 218 240 259 243 189 139 162 175 179 181 184 187 192 198 206 219 230 230 226 221 220 227 227 218 215 221 224 226 231 236 237 239 242 246 252 254 256 259 260 255 247 240 233 227 220 213 209 210 213 217 220 224 227 229 231 236 243 248 251 252 243 229 222 226 236 241 238 231 223 215 208 201 196 195 197 198 198 201 209 226 247 265
197 202 207 205 214 235 252 237 167 162 170 172 175 189 193 191 192 195 203 215 226 230 222 214 217 228 232 230 231 233 231 231 236 239 241 242 241 245 248 247 248 256 259 250 242 236 233 230 223 214 209 211 214 217 222 226 227 228 232 239 245 248 251 250 237 223 219 227 237 238 233 225 218 211 205 198 195 197 200 199 200 206 217 231 250 269
194 205 208 191 196 221 231 176 150 163 172 176 185 198 203 201 197 197 205 219 224 218 205 199 208 220 227 229 233 237 237 237 240 242 243 243 244 248 250 248 250 260 262 252 239 233 234 233 227 219 215 215 217 219 222 225 227 228 234 241 245 248 251 246 231 219 218 228 235 234 229 221 213 208 202 197 195 198 199 200 202 209 222 235 252 271
197 202 206 200 188 191 185 161 174 180 180 183 192 203 209 209 205 202 205 212 221 217 207 202 204 208 213 220 227 233 237 238 240 241 242 244 245 246 246 247 251 257 257 253 246 239 234 230 226 223 222 219 217 217 220 224 227 231 236 241 244 247 248 238 224 216 219 229 233 231 226 218 212 207 201 196 197 198 199 201 205 212 223 236 249 263
192 195 195 195 205 214 176 152 180 200 191 189 195 205 211 213 211 207 202 196 191 200 210 217 217 213 217 227 233 237 238 236 237 238 239 241 242 242 243 246 251 256 256 253 249 241 232 228 227 228 225 218 214 216 220 224 228 230 234 238 244 248 244 231 220 216 222 231 235 231 224 216 210 206 202 198 198 200 200 201 205 212 222 233 242 252
193 197 190 163 178 214 197 171 170 184 188 194 203 208 208 211 212 209 205 200 195 194 202 213 218 218 224 233 236 234 231 229 232 234 235 237 238 239 244 247 253 261 261 253 246 239 233 230 230 229 224 217 215 218 222 225 226 228 231 237 244 247 239 227 219 220 226 233 236 231 222 214 209 205 202 200 200 200 198 200 205 212 221 229 232 234
206 209 210 198 179 189 194 196 201 196 188 194 207 213 211 207 202 200 202 204 208 211 209 210 211 211 215 222 225 228 230 231 235 238 240 242 243 245 251 256 259 265 265 259 252 244 238 235 232 228 223 218 218 221 224 226 228 230 233 238 243 243 235 226 221 223 229 235 235 227 219 212 207 204 201 201 202 198 195 199 206 212 218 218 211 196
208 212 215 211 204 201 200 204 221 231 220 209 209 217 221 216 205 201 202 201 206 215 220 222 218 213 214 220 226 232 238 240 241 243 245 250 254 257 261 264 264 266 266 262 255 248 242 240 235 228 223 221 220 223 226 227 230 232 233 234 238 238 233 226 223 226 232 235 231 224 216 209 206 202 200 200 198 194 197 203 209 212 212 206 193 174
183 201 213 213 215 221 220 218 225 238 238 229 221 223 230 231 227 224 217 208 205 214 224 231 230 226 226 230 233 239 247 249 251 253 255 260 266 269 272 274 273 272 268 262 256 251 245 240 232 224 223 222 221 223 225 227 230 234 234 233 235 235 230 225 225 229 234 234 229 219 212 208 205 201 199 197 194 194 201 206 208 208 204 194 185 171
Height
3058 3060 3057 3054 3055 3060 3065 3070 3075 3080 3082 3084 3087 3089 3090 3092 3093 3095 3098 3099 3102 3103 3104 3108 3111 3111 3111 3113 3114 3115 3119 3121 3122 3123 3124 3126 3128 3129 3130 3132 3134 3135 3136 3137 3139 3140 3142 3144 3145 3147 3148 3150 3152 3154 3155 3156 3157 3158 3159 3161 3163 3164 3165 3166 3167 3168 3169 3170 3171 3171 3171 3173 3175 3176 3176 3176 3176 3177 3178 3179 3179 3180 3182 3183 3184 3184
3057 3052 3047 3050 3057 3064 3068 3072 3076 3079 3080 3082 3085 3087 3088 3090 3091 3093 3095 3096 3099 3101 3102 3106 3109 3108 3108 3110 3112 3113 3117 3119 3120 3120 3121 3123 3126 3127 3129 3130 3132 3134 3135 3137 3138 3140 3141 3142 3144 3145 3147 3149 3151 3152 3153 3154 3156 3157 3157 3159 3161 3163 3164 3164 3165 3166 3167 3169 3170 3170 3171 3172 3173 3175 3175 3175 3176 3176 3178 3179 3179 3180 3181 3183 3184 3185
3049 3042 3043 3053 3061 3065 3069 3072 3075 3077 3078 3078 3081 3084 3085 3087 3089 3092 3092 3093 3096 3098 3099 3104 3106 3106 3107 3108 3110 3112 3114 3117 3117 3118 3119 3121 3123 3125 3126 3128 3129 3132 3134 3135 3137 3138 3140 3141 3143 3145 3147 3148 3149 3150 3151 3153 3154 3155 3156 3158 3159 3161 3163 3164 3164 3165 3166 3167 3169 3170 3171 3171 3172 3173 3174 3174 3175 3176 3178 3179 3179 3179 3180 3182 3184 3184
3040 3038 3046 3056 3060 3064 3068 3071 3074 3076 3075 3075 3077 3079 3081 3084 3086 3088 3088 3089 3093 3095 3097 3102 3104 3104 3105 3107 3109 3111 3113 3115 3115 3116 3118 3120 3122 3123 3125 3126 3128 3131 3132 3134 3135 3137 3139 3141 3143 3144 3146 3147 3148 3149 3151 3152 3153 3154 3155 3157 3158 3160 3162 3163 3163 3163 3164 3166 3167 3169 3170 3171 3171 3172 3173 3174 3175 3176 3178 3178 3178 3178 3179 3181 3182 3182
3039 3042 3050 3056 3059 3063 3066 3069 3072 3073 3072 3072 3073 3075 3077 3080 3083 3085 3086 3087 3091 3093 3095 3098 3101 3104 3104 3105 3108 3110 3112 3114 3113 3114 3115 3117 3120 3122 3124 3126 3129 3131 3133 3134 3135 3136 3138 3140 3142 3144 3145 3146 3148 3149 3150 3151 3152 3153 3155 3157 3158 3159 3161 3161 3162 3162 3163 3164 3166 3167 3168 3169 3170 3171 3172 3173 3174 3176 3177 3178 3178 3178 3179 3180 3180 3180
3042 3046 3050 3053 3057 3061 3063 3065 3067 3069 3071 3070 3070 3072 3075 3077 3080 3083 3084 3086 3088 3090 3092 3093 3098 3104 3104 3103 3106 3107 3110 3112 3112 3112 3113 3115 3118 3120 3124 3127 3130 3132 3133 3134 3135 3136 3138 3139 3142 3143 3144 3146 3147 3148 3149 3150 3151 3153 3155 3156 3157 3158 3159 3160 3161 3162 3162 3163 3165 3166 3167 3168 3169 3170 3171 3172 3173 3175 3176 3176 3176 3177 3177 3178 3179 3179
3043 3047 3049 3051 3054 3057 3060 3062 3064 3068 3070 3067 3066 3070 3073 3074 3078 3080 3082 3085 3085 3085 3089 3089 3093 3101 3105 3104 3104 3105 3107 3109 3110 3110 3111 3113 3116 3120 3125 3128 3130 3131 3132 3133 3134 3136 3137 3139 3141 3143 3144 3145 3146 3148 3148 3149 3151 3152 3153 3155 3156 3157 3158 3159 3160 3160 3162 3163 3164 3166 3166 3167 3168 3169 3170 3171 3172 3174 3174 3174 3175 3176 3176 3177 3178 3178
3041 3044 3046 3048 3051 3054 3056 3057 3060 3065 3067 3064 3065 3069 3072 3073 3075 3076 3080 3084 3083 3084 3087 3087 3088 3095 3101 3102 3103 3104 3104 3106 3107 3108 3109 3112 3115 3119 3124 3126 3128 3129 3130 3132 3133 3135 3137 3139 3140 3142 3143 3144 3145 3147 3148 3149 3150 3151 3152 3153 3155 3156 3157 3158 3159 3159 3160 3161 3163 3165 3166 3166 3167 3168 3169 3170 3171 3172 3172 3173 3174 3175 3176 3177 3177 3177
3038 3041 3042 3046 3049 3051 3052 3054 3059 3064 3064 3064 3066 3069 3070 3073 3074 3075 3079 3081 3081 3083 3083 3083 3084 3089 3095 3098 3101 3103 3102 3103 3105 3105 3107 3110 3114 3119 3123 3124 3125 3127 3129 3131 3133 3135 3137 3138 3140 3141 3142 3143 3144 3146 3147 3148 3149 3150 3151 3152 3153 3155 3156 3157 3157 3158 3159 3160 3162 3163 3164 3165 3165 3167 3168 3168 3169 3171 3171 3172 3173 3174 3176 3176 3176 3176
3038 3039 3042 3046 3047 3047 3050 3055 3059 3061 3063 3065 3067 3068 3069 3072 3073 3075 3078 3078 3078 3078 3077 3078 3081 3085 3091 3094 3096 3099 3100 3101 3103 3104 3106 3109 3113 3118 3121 3121 3123 3125 3126 3128 3131 3133 3136 3137 3139 3140 3141 3142 3143 3145 3145 3146 3147 3148 3149 3151 3152 3154 3155 3156 3157 3157 3159 3160 3161 3162 3163 3164 3164 3166 3167 3167 3168 3170 3171 3171 3172 3173 3174 3174 3173 3173
3037 3039 3042 3043 3044 3046 3051 3055 3057 3059 3063 3066 3067 3067 3069 3071 3071 3073 3076 3076 3076 3073 3071 3075 3078 3082 3089 3091 3090 3092 3095 3098 3100 3102 3105 3108 3112 3116 3118 3119 3120 3122 3123 3126 3129 3132 3134 3136 3137 3139 3140 3141 3142 3143 3144 3145 3146 3148 3149 3150 3151 3153 3154 3156 3157 3158 3159 3160 3161 3162 3163 3164 3165 3165 3166 3167 3168 3169 3169 3170 3170 3171 3171 3171 3171 3171
3035 3037 3038 3040 3043 3046 3051 3054 3055 3057 3062 3064 3065 3065 3067 3067 3069 3071 3073 3073 3073 3071 3070 3074 3078 3080 3083 3087 3087 3089 3091 3093 3095 3098 3101 3105 3109 3114 3116 3118 3119 3120 3121 3124 3127 3129 3132 3134 3136 3137 3139 3140 3141 3142 3143 3144 3145 3147 3148 3149 3151 3152 3154 3155 3157 3158 3159 3160 3161 3162 3163 3164 3164 3165 3166 3166 3167 3167 3167 3168 3169 3169 3169 3169 3169 3169
3031 3033 3034 3037 3041 3044 3048 3051 3053 3055 3058 3060 3061 3062 3064 3064 3068 3070 3070 3070 3071 3070 3070 3073 3077 3078 3078 3080 3084 3087 3090 3090 3092 3096 3099 3102 3106 3111 3114 3116 3117 3118 3120 3123 3125 3127 3130 3132 3134 3136 3138 3139 3140 3141 3142 3143 3145 3147 3148 3149 3150 3152 3153 3154 3156 3157 3159 3160 3161 3162 3162 3163 3164 3164 3165 3165 3166 3165 3166 3166 3167 3167 3167 3167 3167 3167
3027 3030 3033 3035 3038 3041 3044 3046 3048 3049 3052 3054 3054 3057 3060 3061 3066 3069 3068 3069 3070 3069 3069 3072 3075 3076 3075 3076 3079 3084 3088 3089 3090 3095 3099 3101 3104 3109 3112 3113 3114 3117 3119 3122 3123 3126 3128 3131 3133 3135 3136 3138 3139 3140 3141 3142 3144 3146 3148 3149 3150 3152 3153 3154 3155 3157 3158 3159 3160 3160 3161 3162 3162 3163 3163 3163 3163 3163 3163 3164 3165 3165 3165 3165 3165 3165
3024 3026 3028 3031 3034 3037 3040 3042 3044 3047 3049 3050 3051 3055 3058 3058 3061 3065 3065 3067 3069 3068 3068 3071 3073 3073 3073 3073 3075 3081 3085 3086 3089 3094 3098 3100 3104 3107 3109 3110 3112 3115 3117 3120 3122 3124 3127 3129 3132 3134 3135 3136 3137 3139 3140 3142 3144 3146 3147 3149 3150 3152 3153 3154 3155 3155 3156 3157 3158 3159 3160 3160 3160 3160 3161 3161 3161 3161 3161 3162 3163 3163 3163 3163 3163 3163
3024 3024 3026 3030 3032 3034 3037 3040 3045 3048 3049 3050 3051 3055 3056 3056 3058 3061 3063 3064 3065 3066 3067 3068 3071 3072 3072 3072 3074 3079 3083 3085 3088 3093 3096 3099 3102 3105 3105 3108 3111 3114 3116 3118 3120 3122 3125 3128 3130 3132 3133 3135 3136 3138 3139 3141 3143 3145 3147 3148 3149 3151 3152 3153 3154 3154 3155 3156 3157 3158 3158 3158 3158 3158 3159 3159 3159 3159 3159 3160 3161 3161 3161 3161 3161 3161
3022 3024 3026 3029 3032 3034 3036 3040 3043 3046 3047 3048 3049 3051 3053 3056 3058 3059 3062 3063 3062 3066 3067 3067 3070 3072 3072 3075 3076 3077 3081 3084 3088 3092 3095 3097 3101 3103 3104 3107 3110 3112 3114 3116 3118 3120 3123 3126 3128 3130 3132 3133 3134 3136 3138 3140 3142 3144 3146 3147 3148 3149 3151 3152 3153 3153 3154 3155 3156 3156 3156 3156 3156 3157 3157 3157 3157 3158 3158 3159 3159 3159 3159 3159 3159 3158
3020 3022 3024 3026 3028 3032 3037 3040 3042 3045 3047 3046 3046 3049 3053 3057 3058 3058 3061 3063 3064 3067 3067 3067 3070 3070 3070 3075 3079 3078 3080 3083 3087 3090 3093 3096 3100 3102 3103 3105 3108 3111 3113 3115 3117 3119 3121 3124 3125 3127 3129 3131 3133 3134 3136 3138 3140 3142 3144 3145 3147 3148 3149 3150 3151 3152 3153 3154 3154 3154 3154 3155 3155 3155 3155 3156 3156 3156 3157 3157 3157 3157 3157 3157 3156 3156
3020 3021 3022 3025 3028 3031 3036 3039 3040 3042 3045 3046 3047 3050 3052 3054 3054 3055 3058 3061 3065 3068 3067 3066 3069 3069 3069 3073 3078 3079 3079 3082 3086 3088 3090 3093 3096 3099 3101 3104 3107 3109 3111 3113 3115 3117 3119 3121 3123 3125 3128 3129 3131 3132 3134 3136 3139 3141 3142 3143 3145 3147 3148 3149 3150 3151 3152 3152 3153 3153 3153 3153 3153 3153 3154 3154 3154 3154 3155 3155 3155 3154 3154 3154 3154 3154
3020 3021 3021 3024 3028 3031 3034 3036 3036 3038 3042 3044 3047 3050 3050 3051 3052 3054 3056 3058 3062 3067 3068 3067 3067 3068 3069 3069 3073 3077 3078 3080 3084 3086 3087 3090 3093 3097 3099 3101 3104 3107 3109 3111 3113 3115 3117 3119 3121 3124 3126 3127 3129 3131 3133 3135 3137 3139 3140 3142 3143 3145 3146 3147 3148 3148 3149 3150 3150 3151 3151 3151 3151 3151 3152 3152 3152 3152 3152 3152 3152 3152 3152 3152 3152 3152
3019 3019 3019 3022 3026 3028 3029 3030 3032 3036 3040 3041 3043 3045 3047 3049 3051 3053 3055 3057 3060 3064 3066 3067 3067 3067 3067 3067 3068 3071 3075 3078 3081 3083 3085 3088 3091 3095 3098 3100 3102 3104 3106 3109 3111 3113 3115 3117 3120 3122 3124 3125 3126 3129 3131 3133 3136 3137 3139 3140 3141 3142 3143 3144 3145 3146 3146 3147 3148 3148 3148 3149 3149 3149 3150 3150 3150 3150 3151 3150 3150 3150 3150 3150 3150 3150
3017 3018 3020 3021 3023 3025 3025 3027 3032 3036 3039 3040 3042 3043 3044 3046 3049 3053 3055 3056 3058 3060 3062 3065 3067 3066 3066 3067 3067 3069 3072 3075 3078 3080 3083 3086 3089 3093 3096 3098 3100 3102 3104 3107 3109 3111 3113 3116 3118 3119 3121 3122 3124 3127 3130 3131 3134 3136 3137 3138 3139 3140 3141 3142 3143 3143 3144 3145 3145 3146 3146 3147 3147 3148 3148 3148 3148 3149 3149 3148 3148 3148 3148 3148 3148 3148
3017 3018 3021 3022 3024 3025 3027 3030 3034 3037 3040 3041 3043 3044 3045 3046 3048 3051 3054 3055 3057 3059 3060 3063 3065 3065 3065 3066 3068 3070 3072 3074 3076 3079 3082 3085 3088 3091 3094 3097 3099 3100 3102 3104 3107 3110 3111 3113 3115 3117 3119 3120 3122 3126 3128 3130 3132 3134 3135 3137 3138 3139 3139 3140 3141 3141 3142 3143 3144 3145 3145 3146 3146 3146 3147 3147 3147 3147 3147 3146 3146 3146 3146 3146 3146 3147
3017 3019 3021 3024 3027 3029 3032 3034 3036 3038 3041 3042 3042 3043 3045 3046 3048 3051 3054 3055 3056 3057 3059 3061 3064 3065 3065 3065 3068 3070 3072 3074 3077 3080 3082 3084 3087 3090 3092 3095 3097 3099 3100 3102 3105 3108 3109 3111 3113 3115 3117 3119 3121 3123 3125 3128 3130 3132 3133 3135 3136 3137 3138 3138 3139 3140 3141 3142 3143 3143 3144 3145 3145 3145 3145 3145 3145 3145 3144 3144 3144 3144 3144 3144 3145 3145
3018 3019 3020 3022 3026 3029 3032 3034 3034 3036 3038 3039 3039 3042 3044 3046 3049 3051 3053 3055 3055 3055 3057 3059 3062 3065 3064 3065 3067 3069 3072 3075 3079 3081 3082 3083 3085 3087 3090 3093 3095 3096 3098 3100 3103 3105 3107 3109 3111 3113 3115 3117 3119 3121 3122 3126 3128 3130 3132 3133 3134 3135 3136 3137 3138 3138 3139 3140 3141 3142 3143 3143 3143 3143 3143 3142 3142 3142 3142 3142 3142 3142 3142 3143 3143 3143
3018 3019 3019 3020 3023 3026 3028 3028 3028 3031 3034 3036 3038 3041 3043 3045 3049 3050 3051 3054 3054 3054 3055 3058 3060 3063 3064 3064 3066 3069 3071 3074 3078 3080 3081 3083 3084 3085 3087 3090 3092 3094 3096 3098 3101 3102 3105 3107 3109 3111 3113 3116 3117 3118 3119 3123 3126 3128 3130 3131 3132 3133 3134 3135 3136 3137 3138 3138 3139 3140 3140 3140 3140 3140 3140 3140 3140 3140 3140 3140 3141 3141 3141 3141 3141 3141
3019 3019 3019 3021 3023 3025 3026 3026 3028 3031 3033 3035 3037 3039 3042 3044 3047 3050 3050 3052 3053 3054 3055 3056 3058 3062 3064 3064 3065 3067 3069 3073 3076 3077 3079 3081 3082 3084 3086 3088 3090 3093 3095 3097 3099 3100 3102 3105 3107 3109 3111 3113 3115 3116 3117 3121 3125 3127 3128 3129 3130 3130 3132 3133 3134 3135 3136 3136 3137 3138 3138 3138 3138 3137 3137 3137 3138 3138 3138 3139 3139 3139 3139 3139 3139 3139
3019 3019 3020 3023 3025 3027 3029 3030 3032 3033 3034 3036 3038 3039 3041 3043 3045 3048 3049 3051 3053 3053 3054 3056 3058 3061 3064 3064 3064 3066 3068 3071 3073 3074 3077 3079 3081 3083 3085 3086 3089 3091 3093 3095 3097 3098 3100 3102 3104 3107 3109 3111 3113 3114 3115 3119 3123 3124 3125 3127 3128 3128 3129 3130 3131 3132 3133 3134 3135 3135 3135 3135 3135 3135 3135 3135 3136 3136 3137 3137 3137 3137 3137 3137 3138 3138
3019 3020 3021 3023 3024 3027 3029 3031 3033 3034 3035 3037 3038 3039 3041 3042 3044 3047 3049 3050 3052 3052 3054 3056 3058 3059 3062 3063 3065 3066 3068 3070 3071 3073 3076 3079 3081 3082 3083 3085 3087 3088 3090 3093 3094 3096 3097 3100 3102 3105 3107 3108 3110 3112 3115 3118 3120 3121 3123 3125 3125 3126 3127 3128 3129 3130 3131 3132 3132 3133 3133 3133 3133 3133 3133 3134 3134 3135 3135 3135 3135 3136 3136 3136 3137 3136
3019 3020 3021 3023 3024 3026 3028 3030 3031 3032 3034 3036 3038 3039 3041 3041 3042 3045 3048 3050 3050 3051 3053 3056 3059 3059 3060 3062 3064 3066 3068 3069 3071 3074 3076 3078 3079 3081 3082 3083 3085 3086 3088 3090 3092 3093 3095 3098 3100 3102 3104 3106 3108 3110 3113 3116 3117 3119 3121 3122 3123 3124 3125 3126 3127 3128 3129 3130 3131 3131 3131 3131 3131 3131 3132 3132 3133 3133 3134 3134 3134 3134 3135 3135 3135 3135
3018 3019 3020 3022 3023 3025 3027 3028 3029 3030 3032 3035 3037 3039 3040 3041 3042 3043 3045 3048 3049 3051 3052 3055 3058 3060 3061 3063 3064 3065 3067 3069 3072 3073 3075 3076 3078 3079 3081 3082 3083 3085 3086 3088 3090 3091 3093 3096 3098 3099 3101 3104 3106 3108 3111 3113 3115 3117 3119 3120 3121 3122 3123 3124 3125 3126 3127 3128 3129 3129 3129 3129 3130 3130 3130 3131 3132 3132 3132 3133 3133 3133 3134 3134 3134 3134
3018 3020 3020 3022 3023 3024 3025 3027 3028 3029 3030 3033 3036 3038 3039 3040 3041 3041 3043 3046 3049 3051 3052 3053 3056 3058 3060 3063 3065 3066 3067 3069 3071 3072 3073 3075 3076 3078 3080 3081 3082 3083 3085 3086 3088 3089 3091 3093 3095 3097 3099 3102 3103 3106 3109 3111 3113 3115 3117 3118 3119 3120 3121 3122 3123 3124 3125 3126 3127 3127 3127 3127 3128 3128 3129 3130 3130 3131 3131 3131 3132 3132 3132 3132 3132 3132
3018 3020 3021 3022 3023 3023 3024 3026 3027 3028 3029 3032 3034 3036 3038 3039 3040 3041 3042 3044 3047 3050 3052 3053 3055 3056 3057 3060 3063 3065 3067 3069 3070 3071 3072 3073 3075 3077 3078 3079 3080 3081 3083 3084 3086 3087 3089 3091 3093 3095 3098 3099 3101 3104 3107 3109 3111 3113 3114 3115 3117 3119 3119 3120 3121 3122 3123 3124 3124 3125 3125 3125 3126 3127 3128 3128 3129 3129 3129 3129 3130 3130 3130 3130 3130 3130
3018 3020 3021 3022 3022 3023 3024 3026 3027 3028 3029 3031 3032 3034 3035 3037 3038 3040 3042 3044 3046 3049 3051 3053 3054 3056 3057 3058 3061 3063 3065 3067 3069 3070 3072 3073 3074 3076 3076 3077 3078 3079 3080 3082 3084 3086 3088 3089 3091 3094 3095 3096 3099 3102 3105 3107 3109 3110 3112 3113 3115 3116 3117 3117 3119 3120 3121 3122 3122 3122 3123 3124 3125 3125 3126 3126 3127 3127 3127 3128 3128 3128 3128 3128 3129 3129
3019 3020 3021 3021 3022 3024 3024 3026 3028 3029 3029 3030 3032 3033 3034 3035 3037 3039 3041 3044 3046 3047 3050 3052 3053 3055 3057 3059 3061 3063 3064 3066 3067 3069 3071 3072 3073 3074 3074 3075 3076 3077 3078 3079 3081 3083 3085 3087 3089 3091 3092 3094 3097 3099 3103 3105 3106 3108 3110 3112 3113 3114 3115 3115 3117 3118 3119 3120 3120 3120 3121 3122 3123 3124 3124 3124 3125 3125 3126 3126 3127 3127 3127 3127 3128 3128
3019 3020 3021 3022 3023 3024 3024 3026 3028 3029 3028 3029 3031 3032 3033 3035 3037 3039 3041 3043 3045 3047 3049 3052 3053 3054 3056 3058 3060 3062 3063 3065 3066 3067 3069 3070 3071 3072 3073 3074 3075 3075 3076 3078 3079 3081 3083 3085 3087 3088 3090 3092 3094 3096 3100 3103 3104 3107 3109 3110 3112 3112 3112 3113 3115 3117 3117 3118 3118 3119 3120 3121 3121 3122 3122 3122 3123 3124 3124 3125 3125 3125 3126 3126 3127 3127
3020 3021 3022 3022 3023 3024 3025 3025 3027 3028 3028 3029 3030 3031 3033 3035 3037 3039 3040 3042 3044 3046 3048 3051 3053 3054 3055 3056 3057 3059 3062 3064 3065 3065 3067 3068 3070 3070 3071 3072 3073 3074 3075 3076 3078 3080 3082 3084 3086 3087 3089 3090 3092 3095 3098 3100 3102 3105 3107 3108 3110 3110 3111 3112 3114 3115 3115 3116 3116 3117 3118 3119 3119 3120 3120 3121 3122 3122 3123 3123 3124 3124 3125 3125 3126 3126
3020 3021 3022 3023 3023 3024 3025 3026 3027 3029 3029 3029 3030 3031 3033 3034 3035 3037 3039 3040 3042 3045 3047 3050 3053 3053 3053 3053 3055 3057 3059 3061 3062 3064 3065 3066 3067 3068 3069 3070 3072 3073 3074 3075 3076 3078 3080 3082 3084 3085 3087 3089 3091 3094 3096 3099 3101 3103 3105 3107 3108 3109 3110 3111 3112 3113 3113 3114 3115 3116 3116 3117 3117 3118 3119 3119 3120 3121 3121 3122 3122 3123 3123 3124 3124 3125
3019 3020 3022 3023 3023 3024 3025 3026 3027 3029 3029 3029 3030 3032 3033 3034 3034 3036 3038 3039 3041 3044 3045 3048 3051 3052 3051 3050 3052 3054 3056 3058 3060 3062 3064 3065 3066 3066 3067 3069 3071 3072 3073 3075 3075 3076 3078 3080 3081 3083 3085 3087 3089 3092 3095 3097 3099 3101 3103 3105 3106 3107 3109 3110 3111 3111 3111 3112 3113 3114 3114 3115 3115 3116 3117 3118 3118 3119 3119 3120 3121 3122 3122 3123 3123 3124
3019 3020 3022 3023 3023 3024 3025 3025 3027 3029 3029 3029 3030 3031 3033 3033 3034 3036 3037 3038 3040 3042 3044 3045 3048 3049 3049 3048 3049 3052 3054 3056 3058 3061 3063 3064 3064 3065 3066 3068 3070 3071 3072 3073 3074 3075 3076 3078 3079 3081 3083 3085 3088 3091 3094 3095 3097 3099 3101 3103 3104 3105 3107 3108 3108 3109 3109 3110 3111 3112 3112 3113 3114 3114 3115 3116 3116 3117 3118 3119 3120 3121 3121 3122 3123 3123
3019 3020 3022 3023 3023 3024 3025 3026 3027 3028 3029 3030 3030 3031 3032 3032 3033 3034 3035 3035 3037 3039 3041 3043 3045 3046 3046 3047 3048 3050 3052 3054 3057 3059 3061 3062 3062 3063 3065 3066 3068 3069 3070 3071 3072 3073 3074 3076 3078 3080 3082 3084 3087 3090 3092 3094 3095 3097 3099 3101 3102 3103 3104 3105 3106 3106 3107 3108 3109 3110 3110 3111 3112 3112 3113 3114 3115 3116 3117 3118 3119 3120 3120 3121 3122 3122
3019 3020 3021 3022 3023 3024 3025 3026 3027 3028 3029 3030 3031 3031 3032 3032 3032 3033 3033 3034 3035 3037 3039 3041 3042 3043 3045 3047 3048 3049 3050 3052 3055 3057 3059 3060 3060 3062 3063 3064 3066 3066 3067 3068 3069 3070 3072 3074 3076 3078 3080 3083 3085 3087 3089 3091 3093 3095 3097 3098 3100 3101 3102 3103 3103 3104 3105 3106 3107 3108 3108 3109 3110 3110 3111 3112 3113 3115 3116 3117 3118 3119 3120 3120 3121 3122
3019 3020 3021 3022 3023 3024 3025 3026 3026 3028 3029 3029 3030 3031 3032 3032 3032 3033 3034 3035 3035 3036 3038 3040 3041 3042 3043 3045 3046 3047 3049 3051 3053 3055 3057 3058 3059 3060 3062 3063 3064 3065 3065 3066 3067 3068 3070 3071 3073 3075 3078 3080 3082 3083 3086 3088 3090 3092 3094 3096 3098 3099 3100 3100 3101 3101 3102 3104 3105 3106 3106 3107 3108 3109 3110 3111 3112 3114 3115 3116 3117 3118 3119 3120 3120 3121
3019 3020 3021 3022 3023 3024 3025 3025 3026 3027 3028 3029 3030 3031 3031 3032 3032 3033 3035 3035 3036 3037 3038 3039 3040 3041 3042 3044 3045 3047 3049 3051 3052 3053 3055 3057 3058 3059 3060 3061 3062 3064 3064 3065 3065 3066 3068 3069 3071 3073 3075 3077 3079 3081 3084 3087 3088 3090 3092 3094 3096 3097 3098 3098 3098 3099 3101 3102 3103 3104 3104 3105 3106 3108 3109 3110 3111 3113 3114 3115 3116 3117 3118 3119 3119 3120
3018 3019 3020 3021 3022 3023 3024 3025 3026 3027 3028 3029 3030 3030 3030 3031 3032 3034 3035 3036 3036 3037 3038 3038 3039 3040 3042 3044 3045 3046 3048 3050 3051 3052 3054 3055 3056 3057 3058 3059 3061 3062 3063 3063 3064 3065 3066 3067 3069 3071 3073 3074 3077 3080 3082 3085 3086 3088 3090 3092 3093 3094 3095 3096 3096 3098 3099 3100 3101 3102 3102 3104 3105 3106 3107 3109 3110 3111 3113 3114 3115 3116 3117 3118 3118 3118
3017 3018 3020 3021 3022 3023 3024 3026 3027 3027 3027 3028 3029 3029 3029 3030 3032 3034 3035 3036 3037 3037 3038 3038 3039 3040 3041 3043 3044 3045 3047 3048 3049 3050 3051 3053 3054 3055 3056 3057 3059 3060 3061 3061 3062 3063 3064 3065 3067 3068 3070 3072 3075 3078 3080 3082 3084 3086 3088 3090 3091 3092 3093 3093 3094 3096 3098 3098 3099 3100 3101 3102 3103 3104 3106 3107 3109 3110 3112 3113 3114 3115 3116 3117 3117 3117
3017 3019 3020 3021 3022 3023 3024 3025 3026 3027 3027 3028 3029 3029 3029 3030 3032 3033 3035 3036 3037 3037 3038 3038 3039 3040 3041 3041 3043 3044 3045 3046 3046 3047 3049 3051 3052 3053 3054 3055 3056 3057 3058 3059 3060 3061 3061 3063 3064 3066 3068 3070 3072 3075 3078 3080 3081 3084 3086 3087 3089 3090 3090 3091 3093 3095 3096 3096 3097 3098 3099 3100 3102 3103 3104 3106 3107 3109 3110 3112 3113 3114 3115 3115 3116 3115
3017 3019 3020 3021 3022 3023 3024 3024 3025 3026 3027 3027 3028 3028 3028 3029 3031 3033 3034 3035 3036 3037 3037 3038 3039 3040 3040 3040 3041 3042 3043 3044 3045 3046 3047 3049 3050 3051 3052 3053 3054 3055 3056 3057 3057 3058 3059 3061 3062 3063 3065 3068 3070 3073 3075 3077 3079 3081 3083 3085 3087 3087 3088 3090 3092 3093 3094 3094 3095 3096 3098 3099 3101 3102 3103 3105 3106 3108 3110 3111 3112 3113 3113 3114 3114 3114
3017 3018 3019 3020 3021 3022 3022 3023 3025 3026 3026 3027 3027 3027 3028 3029 3030 3032 3033 3034 3035 3036 3036 3037 3038 3039 3040 3040 3040 3040 3042 3043 3044 3045 3046 3047 3048 3050 3050 3051 3052 3053 3054 3055 3056 3056 3058 3059 3061 3062 3064 3066 3068 3071 3073 3075 3077 3079 3081 3083 3084 3086 3087 3088 3090 3090 3091 3092 3093 3095 3096 3098 3099 3101 3102 3104 3106 3107 3108 3109 3110 3111 3112 3112 3112 3112
3016 3017 3018 3019 3020 3021 3021 3022 3024 3025 3025 3026 3026 3027 3028 3029 3030 3031 3032 3033 3034 3035 3035 3036 3037 3038 3039 3039 3039 3039 3040 3041 3043 3044 3044 3045 3047 3048 3049 3050 3050 3051 3052 3053 3054 3055 3056 3057 3059 3060 3062 3064 3066 3069 3071 3073 3075 3077 3079 3080 3082 3083 3084 3086 3087 3088 3089 3090 3092 3093 3094 3096 3097 3099 3101 3103 3105 3106 3107 3107 3108 3109 3110 3111 3111 3111
3016 3016 3017 3018 3018 3019 3020 3021 3022 3024 3024 3025 3026 3027 3027 3028 3029 3029 3030 3031 3033 3033 3034 3034 3035 3037 3037 3037 3037 3038 3039 3040 3041 3042 3043 3044 3045 3046 3047 3048 3048 3049 3050 3051 3051 3052 3054 3055 3056 3058 3060 3061 3064 3066 3069 3071 3073 3075 3076 3078 3079 3081 3082 3084 3085 3086 3087 3088 3090 3091 3093 3094 3096 3098 3100 3102 3104 3105 3105 3106 3107 3108 3109 3109 3109 3110